FW9989 Weather Reports


Display with metric or nautical units.
time (UTC)temp
F
wind
direction
speed
MPH
gust
MPH
rain 1hr
in
rain 24hr
in
rain mn
in
humidity
%
barometer
mb
20260502130347 55 311 0.0 0.0 0.00 0.00 0.00 86 1014.9
20260502123329 54 346 4.0 7.0 0.00 0.00 0.00 88 1014.9
20260502122826 54 350 4.0 6.0 0.00 0.00 0.00 89 1014.6
20260502122322 54 1 0.0 0.0 0.00 0.00 0.00 88 1014.6
20260502121821 53 18 0.0 1.0 0.00 0.00 0.00 88 1014.6
20260502121318 54 4 0.0 0.0 0.00 0.00 0.00 89 1014.9
20260502120815 53 42 3.0 6.0 0.00 0.00 0.00 89 1014.9
20260502120311 53 349 0.0 0.0 0.00 0.00 0.00 90 1015.2
20260502115809 53 215 0.0 0.0 0.00 0.00 0.00 89 1014.9
20260502115306 53 196 0.0 0.0 0.00 0.00 0.00 89 1014.9
20260502114802 53 280 0.0 0.0 0.00 0.00 0.00 89 1014.9
20260502114259 54 184 0.0 0.0 0.00 0.00 0.00 89 1014.9
20260502113756 53 343 1.0 2.0 0.00 0.00 0.00 89 1015.2
20260502113254 53 12 5.0 6.0 0.00 0.00 0.00 89 1015.2
20260502112752 54 1 3.0 5.0 0.00 0.00 0.00 89 1015.2
20260502112249 54 14 2.0 3.0 0.00 0.00 0.00 89 1015.2
20260502111746 54 2 2.0 5.0 0.00 0.00 0.00 89 1015.2
20260502111243 54 341 0.0 5.0 0.00 0.00 0.00 89 1015.2
20260502110740 53 6 0.0 0.0 0.00 0.00 0.00 88 1015.2
20260502110238 54 226 0.0 5.0 0.00 0.00 0.00 89 1014.9
20260502105736 54 12 0.0 0.0 0.00 0.00 0.00 90 1014.9
20260502105232 53 339 0.0 0.0 0.00 0.00 0.00 91 1014.9
20260502104730 53 253 0.0 0.0 0.00 0.00 0.00 91 1014.9
20260502104227 53 312 0.0 0.0 0.00 0.00 0.00 91 1014.9
20260502103725 53 289 0.0 0.0 0.00 0.00 0.00 91 1014.9
20260502103222 53 359 0.0 0.0 0.00 0.00 0.00 91 1014.9
20260502102719 53 249 0.0 0.0 0.00 0.00 0.00 91 1014.9
20260502102216 53 223 0.0 0.0 0.00 0.00 0.00 91 1014.9
20260502101714 53 291 0.0 0.0 0.00 0.00 0.00 92 1014.9
20260502101212 53 219 0.0 0.0 0.00 0.00 0.00 92 1014.9
20260502100710 53 299 0.0 0.0 0.00 0.00 0.00 92 1014.6
20260502100208 53 201 0.0 0.0 0.00 0.00 0.00 92 1014.6
20260502091142 53 290 0.0 0.0 0.00 0.00 0.00 92 1014.2
20260502090639 53 216 0.0 0.0 0.00 0.00 0.00 92 1014.2
20260502090136 53 238 0.0 0.0 0.00 0.00 0.00 92 1014.2
20260502071534 54 243 0.0 0.0 0.00 0.00 0.00 92 1013.9
20260502071032 53 239 0.0 0.0 0.00 0.00 0.00 92 1013.9
20260502070530 53 207 0.0 0.0 0.00 0.00 0.00 91 1013.9
20260502070028 53 213 0.0 0.0 0.00 0.00 0.00 91 1013.9
20260502065526 53 200 0.0 0.0 0.00 0.00 0.00 91 1014.2
20260502065023 53 193 0.0 0.0 0.00 0.00 0.00 91 1013.9
20260502064521 53 205 0.0 0.0 0.00 0.00 0.00 91 1013.9
20260502064018 53 234 0.0 0.0 0.00 0.00 0.00 91 1013.9
20260502063516 53 243 0.0 0.0 0.00 0.00 0.00 92 1014.2
20260502063014 53 239 0.0 0.0 0.00 0.00 0.00 93 1014.2
20260502062510 53 239 0.0 0.0 0.00 0.00 0.00 93 1013.9
20260502062009 53 237 0.0 0.0 0.00 0.00 0.00 93 1014.2
20260502061506 53 236 0.0 0.0 0.00 0.00 0.00 93 1014.2
20260502061003 53 233 0.0 0.0 0.00 0.00 0.00 93 1013.9
20260502060458 53 234 0.0 0.0 0.00 0.00 0.00 93 1014.2
20260502055955 53 237 0.0 0.0 0.00 0.00 0.00 93 1014.2
20260502055452 53 231 0.0 0.0 0.00 0.00 0.00 92 1014.2
20260502054946 53 232 0.0 0.0 0.00 0.00 0.00 92 1014.6
20260502054444 53 232 0.0 0.0 0.00 0.00 0.00 92 1014.2
20260502053941 53 231 0.0 0.0 0.00 0.00 0.00 92 1014.6
20260502053438 53 231 0.0 0.0 0.00 0.00 0.00 92 1014.6
20260502052936 53 231 0.0 0.0 0.00 0.00 0.00 92 1014.9
20260502052434 54 232 0.0 0.0 0.00 0.00 0.00 92 1014.9
20260502051932 54 232 0.0 0.0 0.00 0.00 0.00 92 1014.6
20260502051429 54 233 0.0 0.0 0.00 0.00 0.00 92 1014.9
20260502050926 54 221 0.0 0.0 0.00 0.00 0.00 91 1014.9
20260502050423 54 221 0.0 0.0 0.00 0.00 0.00 91 1014.9
20260502045920 53 198 0.0 0.0 0.00 0.00 0.00 91 1014.9
20260502045417 53 186 0.0 0.0 0.00 0.00 0.00 91 1014.9
20260502044914 53 189 0.0 0.0 0.00 0.00 0.00 91 1014.9
20260502044409 53 203 0.0 0.0 0.00 0.00 0.00 91 1014.9
20260502043907 53 230 0.0 0.0 0.00 0.00 0.00 92 1014.9
20260502043404 53 225 0.0 0.0 0.00 0.00 0.00 92 1014.9
20260502042903 53 226 0.0 0.0 0.00 0.00 0.00 92 1014.9
20260502042401 54 220 0.0 0.0 0.00 0.00 0.00 91 1014.9
20260502041858 53 224 0.0 0.0 0.00 0.00 0.00 91 1015.2
20260502041356 53 209 0.0 0.0 0.00 0.00 0.00 90 1015.2
20260502040853 53 171 0.0 0.0 0.00 0.00 0.00 90 1015.2
20260502040349 54 217 0.0 0.0 0.00 0.00 0.00 90 1015.2
20260502035846 54 228 0.0 0.0 0.00 0.00 0.00 90 1015.2
20260502035342 54 214 0.0 0.0 0.00 0.00 0.00 90 1015.2
20260502034840 54 178 0.0 0.0 0.00 0.00 0.00 89 1014.9
20260502034338 54 222 0.0 0.0 0.00 0.00 0.00 89 1015.2
20260502033836 54 166 0.0 0.0 0.00 0.00 0.00 88 1014.9
20260502033333 54 213 0.0 0.0 0.00 0.00 0.00 89 1015.2
20260502032830 54 191 0.0 0.0 0.00 0.00 0.00 87 1015.2
20260502032326 54 222 0.0 0.0 0.00 0.00 0.00 88 1014.9
20260502031824 53 173 0.0 0.0 0.00 0.00 0.00 88 1015.2
20260502031322 53 170 0.0 0.0 0.00 0.00 0.00 88 1015.2
20260502030820 54 181 0.0 0.0 0.00 0.00 0.00 87 1015.2
20260502030318 54 220 0.0 0.0 0.00 0.00 0.00 87 1015.2
20260502025815 54 223 0.0 0.0 0.00 0.00 0.00 87 1015.2
20260502025313 54 210 0.0 0.0 0.00 0.00 0.00 87 1015.2
20260502024810 54 179 0.0 0.0 0.00 0.00 0.00 86 1015.2
20260502024308 54 191 0.0 0.0 0.00 0.00 0.00 86 1014.9
20260502023806 54 215 0.0 0.0 0.00 0.00 0.00 87 1014.9
20260502023303 54 206 0.0 0.0 0.00 0.00 0.00 87 1014.9
20260502022801 54 186 0.0 0.0 0.00 0.00 0.00 86 1014.9
20260502022257 54 214 0.0 0.0 0.00 0.00 0.00 86 1014.9
20260502021754 54 215 0.0 0.0 0.00 0.00 0.00 86 1014.9
20260502021251 54 219 0.0 1.0 0.00 0.00 0.00 85 1014.9
20260502020748 54 175 0.0 0.0 0.00 0.00 0.00 85 1014.9
20260502020246 55 211 0.0 0.0 0.00 0.00 0.00 85 1015.2
20260502015743 54 183 0.0 0.0 0.00 0.00 0.00 85 1015.2
20260502015239 54 214 0.0 0.0 0.00 0.00 0.00 84 1015.2
20260502014737 55 194 0.0 0.0 0.00 0.00 0.00 83 1014.9
20260502014234 55 211 0.0 0.0 0.00 0.00 0.00 84 1015.2
20260502013730 55 219 0.0 0.0 0.00 0.00 0.00 84 1015.2
20260502013225 55 220 0.0 8.0 0.00 0.00 0.00 83 1014.9
20260502012723 55 213 0.0 0.0 0.00 0.00 0.00 83 1014.9
20260502012221 55 191 0.0 0.0 0.00 0.00 0.00 83 1014.9
20260502011718 55 162 0.0 3.0 0.00 0.00 0.00 83 1014.9
20260502011213 55 214 0.0 0.0 0.00 0.00 0.00 82 1014.9
20260502010711 55 170 0.0 0.0 0.00 0.00 0.00 82 1014.9
20260502010207 55 218 0.0 1.0 0.00 0.00 0.00 82 1014.9
20260502005704 55 201 0.0 0.0 0.00 0.00 0.00 81 1014.9
20260502005202 55 194 0.0 0.0 0.00 0.00 0.00 81 1014.9
20260502004658 56 194 0.0 0.0 0.00 0.00 0.00 81 1014.6
20260502004155 56 169 0.0 0.0 0.00 0.00 0.00 81 1014.2
20260502003653 56 222 0.0 0.0 0.00 0.00 0.00 80 1014.2
20260502003150 56 213 0.0 0.0 0.00 0.00 0.00 79 1014.2
20260502002645 56 156 0.0 0.0 0.00 0.00 0.00 78 1014.2
20260502002144 56 160 0.0 0.0 0.00 0.00 0.00 77 1014.2
20260502001641 57 195 0.0 0.0 0.00 0.00 0.00 77 1014.2
20260502001138 57 207 0.0 1.0 0.00 0.00 0.00 77 1014.2
20260502000636 57 209 0.0 0.0 0.00 0.00 0.00 76 1014.6
20260502000133 57 217 0.0 0.0 0.00 0.00 0.00 75 1014.2
20260501235629 57 211 4.0 9.0 0.00 0.00 0.00 74 1014.2
20260501235125 58 194 0.0 7.0 0.00 0.00 0.00 73 1014.2
20260501234621 58 195 2.0 3.0 0.00 0.00 0.00 72 1014.2
20260501234118 58 220 0.0 2.0 0.00 0.00 0.00 72 1014.2
20260501233616 59 223 4.0 6.0 0.00 0.00 0.00 72 1014.2
20260501233114 59 197 3.0 9.0 0.00 0.00 0.00 71 1014.2
20260501232609 60 167 5.0 9.0 0.00 0.00 0.00 71 1013.9
20260501232107 60 203 5.0 7.0 0.00 0.00 0.00 70 1013.9
20260501231604 61 217 7.0 10.0 0.00 0.00 0.00 70 1013.9
20260501231102 62 188 4.0 7.0 0.00 0.00 0.00 69 1013.9
20260501230601 62 201 5.0 9.0 0.00 0.00 0.00 69 1013.5
20260501230058 62 208 2.0 10.0 0.00 0.00 0.00 67 1013.9
20260501225555 62 214 9.0 13.0 0.00 0.00 0.00 66 1013.9
20260501225052 63 200 6.0 13.0 0.00 0.00 0.00 64 1013.9
20260501224549 64 223 5.0 11.0 0.00 0.00 0.00 62 1013.9
20260501224046 64 199 10.0 11.0 0.00 0.00 0.00 60 1013.9
20260501223543 65 203 8.0 9.0 0.00 0.00 0.00 59 1013.9
20260501223039 65 208 9.0 10.0 0.00 0.00 0.00 59 1013.9
20260501222535 65 199 7.0 13.0 0.00 0.00 0.00 59 1013.9
20260501222032 65 213 9.0 13.0 0.00 0.00 0.00 59 1013.9
20260501221529 66 218 8.0 13.0 0.00 0.00 0.00 57 1013.9
20260501221027 65 197 5.0 11.0 0.00 0.00 0.00 57 1013.9
20260501220524 66 186 7.0 16.0 0.00 0.00 0.00 57 1013.9
20260501220021 66 215 9.0 13.0 0.00 0.00 0.00 56 1013.9
20260501215517 67 215 5.0 10.0 0.00 0.00 0.00 56 1013.9
20260501215013 67 197 5.0 8.0 0.00 0.00 0.00 54 1014.2
20260501214508 66 226 1.0 5.0 0.00 0.00 0.00 54 1013.9
20260501214004 66 188 9.0 13.0 0.00 0.00 0.00 55 1014.2
20260501213501 67 207 3.0 9.0 0.00 0.00 0.00 53 1014.2
20260501212956 67 198 3.0 7.0 0.00 0.00 0.00 55 1013.9
20260501212453 67 211 7.0 9.0 0.00 0.00 0.00 54 1013.9
20260501211950 67 167 1.0 7.0 0.00 0.00 0.00 54 1013.9
20260501211447 66 226 7.0 8.0 0.00 0.00 0.00 55 1013.9
20260501210945 66 203 5.0 10.0 0.00 0.00 0.00 55 1014.2
20260501210441 66 198 5.0 7.0 0.00 0.00 0.00 54 1013.9
20260501205938 66 206 3.0 9.0 0.00 0.00 0.00 56 1014.2
20260501205434 66 203 4.0 7.0 0.00 0.00 0.00 53 1013.9
20260501204932 66 221 4.0 8.0 0.00 0.00 0.00 54 1014.2
20260501204428 66 218 5.0 7.0 0.00 0.00 0.00 53 1014.6
20260501203924 66 146 3.0 7.0 0.00 0.00 0.00 53 1014.2
20260501203421 65 207 5.0 7.0 0.00 0.00 0.00 54 1014.6
20260501202919 65 207 0.0 0.0 0.00 0.00 0.00 52 1014.2
20260501202415 65 177 3.0 7.0 0.00 0.00 0.00 52 1014.2
20260501201912 65 217 6.0 8.0 0.00 0.00 0.00 52 1014.2
20260501201409 66 198 1.0 7.0 0.00 0.00 0.00 51 1014.6
20260501200906 66 220 5.0 6.0 0.00 0.00 0.00 54 1014.6
20260501200403 66 194 3.0 8.0 0.00 0.00 0.00 52 1014.9
20260501195901 66 236 2.0 3.0 0.00 0.00 0.00 51 1014.6
20260501195356 66 226 2.0 6.0 0.00 0.00 0.00 51 1014.9
20260501194852 66 244 0.0 1.0 0.00 0.00 0.00 51 1014.9
20260501194348 65 217 1.0 7.0 0.00 0.00 0.00 51 1014.9
20260501193844 66 226 3.0 5.0 0.00 0.00 0.00 50 1014.9
20260501193343 66 215 3.0 9.0 0.00 0.00 0.00 52 1015.6
20260501192840 66 189 0.0 0.0 0.00 0.00 0.00 53 1015.2
20260501192338 66 145 3.0 5.0 0.00 0.00 0.00 52 1015.2
20260501191834 65 58 1.0 3.0 0.00 0.00 0.00 55 1015.6
20260501191332 65 326 0.0 1.0 0.00 0.00 0.00 53 1015.6
20260501190828 64 330 0.0 1.0 0.00 0.00 0.00 54 1015.6
20260501190324 65 188 3.0 3.0 0.00 0.00 0.00 50 1015.9
20260501185820 65 230 1.0 2.0 0.00 0.00 0.00 52 1015.9
20260501185316 64 254 0.0 2.0 0.00 0.00 0.00 52 1015.9
20260501184812 64 211 2.0 2.0 0.00 0.00 0.00 52 1015.9
20260501184308 64 13 3.0 6.0 0.00 0.00 0.00 53 1016.2
20260501183804 63 234 0.0 0.0 0.00 0.00 0.00 52 1016.2
20260501183301 63 167 0.0 0.0 0.00 0.00 0.00 55 1016.2
20260501182757 63 211 0.0 0.0 0.00 0.00 0.00 52 1016.2
20260501175652 62 220 0.0 7.0 0.00 0.00 0.00 54 1016.6
20260501175149 62 220 0.0 7.0 0.00 0.00 0.00 54 1016.6
20260501174645 62 135 0.0 0.0 0.00 0.00 0.00 53 1016.9
20260501174143 61 195 0.0 0.0 0.00 0.00 0.00 55 1016.9
20260501173640 61 237 0.0 0.0 0.00 0.00 0.00 52 1016.9
20260501173137 61 82 0.0 1.0 0.00 0.00 0.00 55 1016.6
20260501172633 60 179 6.0 7.0 0.00 0.00 0.00 56 1016.6
20260501172128 61 209 0.0 0.0 0.00 0.00 0.00 54 1017.3
20260501171624 61 232 0.0 0.0 0.00 0.00 0.00 53 1017.3
20260501171122 60 216 0.0 0.0 0.00 0.00 0.00 54 1017.3
20260501170619 60 206 2.0 3.0 0.00 0.00 0.00 49 1017.3
20260501170115 60 218 3.0 6.0 0.00 0.00 0.00 50 1017.3
20260501165613 60 215 5.0 7.0 0.00 0.00 0.00 56 1017.3
20260501165110 60 211 5.0 8.0 0.00 0.00 0.00 53 1017.3
20260501164608 59 223 0.0 6.0 0.00 0.00 0.00 56 1017.3
20260501164104 59 232 3.0 8.0 0.00 0.00 0.00 54 1017.3
20260501163601 59 216 2.0 6.0 0.00 0.00 0.00 57 1017.3
20260501163058 59 202 3.0 8.0 0.00 0.00 0.00 57 1017.6
20260501162554 59 213 5.0 6.0 0.00 0.00 0.00 58 1017.9
20260501162051 59 213 4.0 6.0 0.00 0.00 0.00 57 1017.6
20260501161548 59 207 3.0 5.0 0.00 0.00 0.00 57 1017.6
20260501161045 59 217 2.0 6.0 0.00 0.00 0.00 55 1017.9
20260501160542 59 221 3.0 7.0 0.00 0.00 0.00 57 1017.6
20260501160039 59 222 0.0 6.0 0.00 0.00 0.00 57 1017.6
20260501155535 59 206 4.0 7.0 0.00 0.00 0.00 57 1017.9
20260501155033 58 221 6.0 10.0 0.00 0.00 0.00 60 1017.9
20260501154530 58 194 6.0 8.0 0.00 0.00 0.00 58 1017.9
20260501154027 59 187 4.0 6.0 0.00 0.00 0.00 58 1018.3
20260501153524 58 216 3.0 9.0 0.00 0.00 0.00 59 1017.9
20260501153020 58 217 5.0 7.0 0.00 0.00 0.00 59 1017.9
20260501152517 58 333 0.0 0.0 0.00 0.00 0.00 60 1018.3
20260501152015 57 282 3.0 5.0 0.00 0.00 0.00 62 1018.3
20260501151512 57 0 7.0 7.0 0.00 0.00 0.00 61 1018.3
20260501151009 57 5 1.0 5.0 0.00 0.00 0.00 63 1018.3
20260501150503 58 228 0.0 0.0 0.00 0.00 0.00 61 1018.3
20260501150000 57 357 1.0 5.0 0.00 0.00 0.00 61 1018.3
20260501145456 57 331 3.0 5.0 0.00 0.00 0.00 60 1017.9
20260501144955 57 334 3.0 9.0 0.00 0.00 0.00 60 1018.3
20260501144450 57 331 3.0 5.0 0.00 0.00 0.00 62 1018.3
20260501143946 57 327 3.0 3.0 0.00 0.00 0.00 64 1017.9
20260501143443 57 350 0.0 3.0 0.00 0.00 0.00 63 1017.9
20260501142939 56 10 3.0 6.0 0.00 0.00 0.00 63 1017.9